Weather in Vladykino

Russia / Penza Oblast     53°04′21″N   44°01′29″E
temp.,
°C
wind,
m/s
gust,
m/s
humid.,
%
clouds,
%
prec.,
mm/h
press.,
hPa
HPBL,
m
15 may, sat
sat1500:00+18se41477100 0.0 1015276
03:00+17sse5156554 0.0 1015314
06:00+16sse6166494 0.0 1015348
09:00+21s71557100 0.0 1015615
12:00+25sse814495 0.0 10151097
15:00+26s7145156 0.0 10151594
18:00+23s61361100 0.0 1014487
21:00+18sse397558 0.0 1014149
16 may, sun
sun1600:00+16s22815 0.0 101420
03:00+16w118761 0.0 101511
06:00+17nne118698 0.0 101552
09:00+22se2271100 0.0 1016412
12:00+24s575099 0.0 10161105
15:00+25ssw584423 0.0 10151361
18:00+23s35615 0.0 1015137
21:00+19se226824 0.0 101511
17 may, mon
mon1700:00+17se337028 0.0 101632
03:00+16se237039 0.0 101621
06:00+17se3671100 0.0 1016119
09:00+23sse5115498 0.0 1016443
12:00+25sse6840100 0.0 1016875
15:00+27se5844100 0.0 10161243
18:00+23se376286 0.0 1015137
21:00+19ese4759100 0.0 101685
18 may, tue
tue1800:00+18se41059100 0.0 1015149
03:00+16ese41155100 0.0 1015164
06:00+16ese41264100 0.0 1014211
09:00+22se69505 0.0 1014401
12:00+26se7113911 0.0 10131048
15:00+27se71245100 0.0 10121375
18:00+24se614535 0.0 1011372
21:00+21ese7184918 0.0 1011364
19 may, wed
wed1900:00+20se71941100 0.0 1010455
03:00+19se6164790 0.0 1010351
06:00+17se51264100 0.0 1010287
09:00+22sse7125288 0.0 1009545
12:00+25sse8154376 0.0 10091605
15:00+21ssw4968100 0.0 1009846
18:00+21ssw59705 0.4 1009759
21:00+16sw5128798 0.8 1011489